Weather History for PAGY - August, 2012

Change the Weather History Date:

Thursday, August 9, 2012

  Actual Average (WUND) Record (WUND)
Temperature  
Mean Temperature 55 °F -  
Max Temperature 57 °F - - (-1)
Min Temperature 53 °F - - (-1)
Degree Days  
Heating Degree Days 10    
Growing Degree Days 5 (Base 50)    
Moisture  
Dew Point 47 °F    
Average Humidity 74    
Maximum Humidity 94    
Minimum Humidity 65    
Precipitation  
Precipitation 0.01 in - - ()
Sea Level Pressure  
Sea Level Pressure 30.06 in    
Wind  
Wind Speed 20 mph (SSW)    
Max Wind Speed 23 mph    
Max Gust Speed 32 mph    
Visibility 10 miles    
Events Rain    
Averages and records for this station are not official NWS values.
T = Trace of Precipitation, MM = Missing Value Source: NWS Daily Summary

Daily Weather History Graph

Daily Weather History Graph

Search for Another Location

Airport or City:

Trip Planner

Search our weather history database for the weather conditions in past years. The results will help you decide how hot, cold, wet, or windy it might be!

Date:

Astronomy

Aug. 09, 2012 Rise Set
Actual Time 5:05 AM AKDT 9:06 PM AKDT
Civil Twilight 4:12 AM AKDT 9:58 PM AKDT
Nautical Twilight 2:49 AM AKDT 11:18 PM AKDT
Astronomical Twilight Sun does not set Sun does not set
Moon 10:43 PM AKDT (8/9) 3:12 PM AKDT (8/9)
Length of Visible Light 17h 45m
Length of Day
16h 00m
Waning Gibbous, 50% of the Moon is Illuminated
Aug 9
Waning Gibbous
Aug 17
New
Aug 24
First Quarter
Aug 31
Full
Sep 8
Last Quarter

Hourly Weather History & Observations

Time (AKDT) Temp. Dew Point Humidity Pressure Visibility Wind Dir Wind Speed Gust Speed Precip Events Conditions
12:06 AM 53.6 °F 51.8 °F 94% 29.91 in 10.0 mi SSW 23.0 mph 28.8 mph 0.01 in   Overcast
12:53 AM 55.9 °F 48.9 °F 77% 29.94 in 10.0 mi SSW 16.1 mph 25.3 mph 0.01 in   Overcast
1:53 AM 55.0 °F 48.9 °F 80% 29.96 in 10.0 mi SSW 19.6 mph 27.6 mph 0.00 in Rain Light Rain
2:53 AM 55.0 °F 48.0 °F 77% 29.97 in 10.0 mi SSW 16.1 mph 23.0 mph 0.00 in   Overcast
3:53 AM 55.0 °F 46.9 °F 74% 29.99 in 10.0 mi SSW 15.0 mph 24.2 mph N/A   Overcast
4:53 AM 55.0 °F 46.9 °F 74% 30.00 in 10.0 mi SSW 23.0 mph 29.9 mph N/A   Mostly Cloudy
5:53 AM 55.0 °F 45.0 °F 69% 30.03 in 10.0 mi SSW 17.3 mph 26.5 mph N/A   Mostly Cloudy
6:53 AM 54.0 °F 46.0 °F 75% 30.05 in 10.0 mi SSW 17.3 mph 25.3 mph N/A   Mostly Cloudy
7:53 AM 54.0 °F 46.0 °F 75% 30.06 in 10.0 mi SSW 23.0 mph 32.2 mph N/A   Overcast
8:53 AM 54.0 °F 46.0 °F 75% 30.08 in 10.0 mi SSW 17.3 mph 27.6 mph N/A   Overcast
9:53 AM 55.9 °F 46.0 °F 69% 30.08 in 10.0 mi SSW 21.9 mph 28.8 mph N/A   Mostly Cloudy
10:53 AM 57.0 °F 46.0 °F 67% 30.09 in 10.0 mi SSW 20.7 mph - N/A   Partly Cloudy
11:53 AM 57.0 °F 46.0 °F 67% 30.09 in 10.0 mi SSW 20.7 mph - N/A   Scattered Clouds
12:53 PM 57.0 °F 46.0 °F 67% 30.10 in 10.0 mi SSW 21.9 mph 28.8 mph N/A   Mostly Cloudy
1:53 PM 57.9 °F 46.0 °F 65% 30.10 in 10.0 mi SSW 20.7 mph - N/A   Scattered Clouds
2:53 PM 57.0 °F 46.0 °F 67% 30.11 in 10.0 mi SSW 21.9 mph 31.1 mph N/A   Overcast
3:53 PM 55.9 °F 46.9 °F 72% 30.11 in 10.0 mi SSW 16.1 mph 28.8 mph N/A   Mostly Cloudy
4:53 PM 55.9 °F 46.9 °F 72% 30.11 in 10.0 mi SSW 18.4 mph 25.3 mph N/A   Overcast
5:53 PM 55.9 °F 46.9 °F 72% 30.10 in 10.0 mi SSW 23.0 mph 29.9 mph N/A   Overcast
6:53 PM 55.0 °F 46.9 °F 74% 30.11 in 10.0 mi SSW 18.4 mph 29.9 mph N/A   Overcast
7:53 PM 55.0 °F 46.9 °F 74% 30.11 in 10.0 mi SSW 19.6 mph 29.9 mph N/A   Overcast
8:53 PM 55.0 °F 46.0 °F 72% 30.11 in 10.0 mi SSW 17.3 mph 27.6 mph N/A   Overcast
9:53 PM 54.0 °F 46.9 °F 77% 30.12 in 10.0 mi SSW 17.3 mph 25.3 mph N/A   Overcast
10:53 PM 54.0 °F 48.0 °F 80% 30.12 in 10.0 mi SSW 19.6 mph 29.9 mph 0.00 in Rain Light Rain
11:53 PM 53.1 °F 48.0 °F 83% 30.13 in 10.0 mi SSW 18.4 mph 28.8 mph 0.00 in Rain Light Rain